Location: *
(51.2000°N, 18.6000°E)
Time: 08:05:41
(UTC+00:00)

Daily predictions for brighter satellites

Satellite Brightness Start Highest point End
(mag) Time Altitude Azimuth Time Altitude Azimuth Time Altitude Azimuth
ATLAS 2AS CENTAUR R/B 3.0 17:47:35 10° NW 17:55:22 79° NE 18:02:30 10° SE
SL-08 RB Rocket 4.1 17:56:02 10° SE 18:00:24 47° ENE 18:04:50 10° N
CZ-4C R/B 4.1 17:56:57 10° NW 18:02:20 29° N 18:08:34 10° ENE
Cosmos 1908 4.1 17:59:18 10° SSE 18:02:39 29° E 18:06:03 10° NNE
CZ-4 R/B 4.1 17:59:55 10° SW 18:02:59 22° W 18:06:05 10° NW
STARLINK-1243 3.9 17:59:26 10° W 18:03:34 68° N 18:07:43 10° E
SeaSat 1 2.5 17:59:34 10° NNE 18:04:33 86° SE 18:09:30 10° SSW
Resurs 1-3 4.4 18:01:18 10° SE 18:05:13 33° ENE 18:09:11 10° N
Cosmos 1943 3.3 17:59:41 10° SSW 18:05:15 61° ESE 18:10:52 10° NE
Ariane Rocket 3.1 18:03:24 10° SSE 18:08:29 83° WSW 18:13:35 10° NNW
STARLINK-1236 3.9 18:04:25 10° W 18:08:33 68° N 18:12:42 10° E
MONITOR-E 3.7 18:07:11 10° SSE 18:09:48 72° ENE 18:12:27 10° N
IRIDIUM 104 4.3 18:05:58 10° N 18:11:14 84° E 18:16:27 10° S
Cosmos 1656 Rocket 3.8 18:05:47 10° NNW 18:11:30 84° WSW 18:17:05 10° SSE
Cosmos 1140 Rocket 4.5 18:08:06 10° SSE 18:12:16 25° E 18:16:26 10° NE
STARLINK-1228 2.7 18:09:51 10° WNW 18:12:48 87° SSW 18:15:36 11° ESE
Cosmos 1470 4.3 18:09:42 10° SSW 18:13:26 42° WNW 18:17:12 10° N
Cosmos 1953 2.4 18:09:31 10° S 18:13:29 85° W 18:17:30 10° N
Cosmos 2184 Rocket 4.0 18:07:32 10° N 18:13:53 82° E 18:20:07 10° SSE
Meteor 1-11 4.4 18:09:17 10° N 18:14:58 56° ENE 18:20:33 10° SSE
COSMOS 2455 3.2 18:10:11 10° NNW 18:16:08 55° NE 18:22:01 10° ESE
Cosmos 1726 2.1 18:14:31 10° S 18:18:16 80° E 18:22:00 10° NNE
STARLINK-1269 3.8 18:14:23 10° WNW 18:18:32 70° N 18:22:40 10° E
CZ-2C R/B 3.5 18:14:43 10° NE 18:19:06 27° E 18:23:30 10° SSE
IRIDIUM 114 4.5 18:15:08 10° N 18:20:23 83° W 18:25:36 10° S
Meteor 2-10 4.2 18:14:57 10° S 18:20:27 80° E 18:26:09 10° NNE
MetOp-A 4.3 18:16:06 10° SE 18:21:21 57° ENE 18:26:36 10° N
Cosmos 2058 Rocket 3.8 18:18:22 10° SSE 18:22:25 34° E 18:26:29 10° NNE
STARLINK-1200 3.8 18:19:22 10° WNW 18:23:31 71° N 18:27:28 11° E
Cosmos 614 Rocket 4.2 18:19:35 10° S 18:24:35 48° ESE 18:29:36 10° NNE
ARGOS 3.3 18:22:10 10° SSE 18:27:34 80° WSW 18:32:59 10° NNW
STARLINK-1192 3.8 18:24:21 10° WNW 18:28:31 72° N 18:32:16 12° E
Cosmos 1726 Rocket 3.6 18:26:06 10° S 18:30:26 59° E 18:34:50 10° NNE
SL-16 R/B 4.2 18:25:47 10° WSW 18:30:49 32° NW 18:35:52 10° NNE
FREGAT/IRIS 3.5 18:28:19 10° S 18:30:56 45° W 18:33:35 10° NNW
SL-24 R/B 4.1 18:27:59 10° NNE 18:32:00 45° E 18:35:37 10° S
Meteor 2-17 Rocket 4.4 18:26:49 10° N 18:33:00 76° ENE 18:39:10 10° SSE
STARLINK-1244 3.7 18:29:20 10° WNW 18:33:29 73° N 18:37:02 14° E
Resurs 01 Rocket 2.0 18:30:56 11° SE 18:34:58 44° ENE 18:39:11 10° N
Cosmos 1825 Rocket 4.1 18:30:40 10° NNW 18:35:02 63° W 18:39:20 10° S
Cosmos 2154 Rocket 4.0 18:30:06 10° N 18:36:31 80° E 18:42:50 10° SSE
ERBS 3.1 18:33:36 10° NW 18:36:51 42° NNE 18:39:24 15° E
ATLAS CENTAUR R/B 3.6 18:34:35 10° NNW 18:37:07 16° NNE 18:39:34 10° ENE
Nadezhda 1 Rocket 4.0 18:30:49 10° S 18:37:09 68° E 18:43:26 10° NNE
APEX 4.5 18:30:55 10° NNW 18:37:39 79° WSW 18:43:08 10° SSE
STARLINK-1138 3.7 18:34:19 10° WNW 18:38:28 75° N 18:41:50 15° E
USA 186 3.1 18:36:14 10° S 18:39:24 41° W 18:42:25 10° NNW
Cosmos 921 Rocket 3.0 18:37:15 10° NNW 18:41:26 64° ENE 18:44:56 14° SSE
STARLINK-1143 3.7 18:39:18 10° WNW 18:43:27 77° N 18:46:36 17° E
SL-24 R/B - RUBIN 2 4.4 18:40:10 10° SSW 18:45:37 51° ESE 18:51:45 10° NE
Cosmos 407 Rocket 3.5 18:40:49 10° S 18:45:52 60° ESE 18:50:55 10° NNE
STARLINK-1233 2.9 18:42:51 10° WNW 18:45:59 74° SSW 18:47:47 23° ESE
STARLINK-1234 3.0 18:43:01 10° WNW 18:46:02 60° SSW 18:47:45 23° SE
Cosmos 1980 Rocket 4.2 18:42:49 10° N 18:46:19 16° NNE 18:49:48 10° ENE
STARLINK-1212 2.9 18:43:18 10° WNW 18:46:26 73° SSW 18:48:13 23° ESE
STARLINK-1105 2.9 18:43:45 10° WNW 18:46:54 73° SSW 18:48:40 23° ESE
STARLINK-1209 3.1 18:44:12 10° WNW 18:47:12 57° SSW 18:48:51 23° SE
STARLINK-1206 2.9 18:44:14 10° WNW 18:47:21 72° SSW 18:49:04 24° ESE
STARLINK-1247 2.9 18:44:40 10° WNW 18:47:48 72° SSW 18:49:30 24° ESE
STARLINK-1227 2.9 18:45:06 10° WNW 18:48:14 72° SSW 18:49:57 24° ESE
STARLINK-1241 3.7 18:44:19 10° WNW 18:48:28 79° NNE 18:51:25 19° E
STARLINK-1218 2.9 18:45:35 10° WNW 18:48:42 71° SSW 18:50:22 25° ESE
STARLINK-1226 2.9 18:46:01 10° WNW 18:49:09 71° SSW 18:50:49 25° ESE
Cosmos 2228 3.1 18:44:53 10° SSW 18:49:12 80° W 18:53:35 10° N
STARLINK-1254 2.9 18:46:27 10° WNW 18:49:35 71° SSW 18:51:15 25° ESE
ERS-1 Rocket 4.4 18:47:20 15° E 18:49:58 22° ENE 18:53:49 10° N
STARLINK-1215 2.9 18:46:56 10° WNW 18:50:04 70° SSW 18:51:40 25° ESE
STARLINK-1231 2.9 18:47:23 10° WNW 18:50:30 70° SSW 18:52:06 26° SE
SPOT 3 Rocket 3.6 18:45:21 10° SSE 18:50:34 82° WSW 18:55:49 10° NNW
STARLINK-1232 2.9 18:48:18 10° WNW 18:51:25 69° SSW 18:52:59 26° SE
STARLINK-1217 2.9 18:48:44 10° WNW 18:51:51 69° SSW 18:53:24 26° SE
Cosmos 1461 3.4 18:47:23 10° NW 18:51:52 67° SW 18:55:35 15° SSE
STARLINK-1208 2.9 18:49:09 10° WNW 18:52:17 68° SSW 18:53:51 26° SE
STARLINK-1229 2.9 18:49:39 10° WNW 18:52:45 68° SSW 18:54:16 27° SE
STARLINK-1271 2.9 18:50:05 10° WNW 18:53:12 67° SSW 18:54:42 27° SE
Cosmos 1603 4.5 18:47:49 10° SW 18:53:20 56° NW 18:58:52 10° NNE
STARLINK-1239 3.6 18:49:15 10° WNW 18:53:25 81° NNE 18:56:09 21° E
STARLINK-1270 2.9 18:50:33 10° WNW 18:53:40 67° SSW 18:55:08 27° SE
STARLINK-1154 2.9 18:51:00 10° WNW 18:54:07 67° SSW 18:55:34 28° SE
Aureole 1 Rocket 4.0 18:47:07 10° SSW 18:54:29 75° ESE 19:00:12 10° NNE
STARLINK-1197 2.9 18:51:55 10° WNW 18:55:00 66° SSW 18:56:26 28° SE
STARLINK-1189 3.0 18:52:21 10° WNW 18:55:27 65° SSW 18:56:52 28° SE
Cosmos 1892 4.1 18:52:45 10° NNE 18:55:54 23° ENE 18:57:00 20° E
STARLINK-1198 3.0 18:52:48 10° WNW 18:55:54 65° SSW 18:57:17 29° SE
STARLINK-1188 3.0 18:53:15 10° WNW 18:56:21 65° SSW 18:57:44 29° SE
SPOT 5 4.3 18:55:01 15° E 18:56:37 18° ENE 18:59:30 10° NNE
Cosmos 1953 Rocket 4.3 18:52:19 10° NNW 18:56:43 56° W 19:01:06 10° S
STARLINK-1235 3.2 18:53:54 10° WNW 18:57:00 54° SSW 18:58:23 28° SE
SJ-6B 4.1 18:53:19 10° S 18:57:15 44° W 19:01:14 10° NNW
STARLINK-1187 3.1 18:54:20 10° WNW 18:57:27 59° SSW 18:58:50 29° SE
STARLINK-1199 3.0 18:55:11 10° WNW 18:58:18 63° SSW 18:59:39 30° SE
STARLINK-1240 3.6 18:54:15 10° WNW 18:58:25 83° NNE 19:00:57 23° ESE
STARLINK-1191 3.0 18:55:39 10° WNW 18:58:46 63° SSW 19:00:06 30° SE
STARLINK-29 4.1 18:56:14 10° SSW 18:58:47 25° SSE 18:58:47 25° SSE
STARLINK-1210 3.0 18:56:05 10° WNW 18:59:12 62° SSW 19:00:31 30° SE
STARLINK-1221 3.0 18:56:33 10° WNW 18:59:40 62° SSW 19:00:58 31° SE
STARLINK-1219 3.0 18:56:59 10° WNW 19:00:07 62° SSW 19:01:23 31° SE
Cosmos 1606 Rocket 4.2 18:55:52 10° SSW 19:00:16 60° WNW 19:04:43 10° N
STARLINK-1222 3.0 18:57:27 10° WNW 19:00:34 61° SSW 19:01:49 31° SE
STARLINK-60 3.2 18:57:41 10° SW 19:00:50 46° SSE 19:02:13 27° E
ATLAS 5 CENTAUR R/B 1.7 18:56:57 10° SSW 19:01:01 50° SE 19:05:36 10° NE
STARLINK-1211 3.0 18:57:54 10° WNW 19:01:01 61° SSW 19:02:15 32° SE
STARLINK-1214 3.1 18:58:20 10° WNW 19:01:28 60° SSW 19:02:41 32° SE
STARLINK-1245 3.0 18:58:51 10° WNW 19:01:56 60° SSW 19:03:07 32° SE
STARLINK-1238 3.1 18:59:15 10° WNW 19:02:22 60° SSW 19:03:34 32° SE
STARLINK-1205 3.1 19:00:12 10° WNW 19:03:17 59° SSW 19:04:25 33° SE
STARLINK-1216 3.6 18:59:15 10° WNW 19:03:25 86° NNE 19:05:45 25° ESE
STARLINK-1204 3.1 19:00:38 10° WNW 19:03:43 58° SSW 19:04:50 34° SE
Terra 3.5 19:03:35 15° E 19:05:20 19° ENE 19:08:35 10° NNE
Cosmos 1825 4.3 19:04:00 10° NNE 19:05:55 13° ENE 19:06:15 13° ENE
Cosmos 1818 3.9 19:00:49 10° SW 19:06:14 70° NW 19:11:43 10° NE
STARLINK-1237 3.6 19:04:13 10° WNW 19:08:23 88° NNE 19:10:31 28° ESE
Cosmos 1954 Rocket 4.2 19:05:02 10° S 19:10:03 49° ESE 19:15:05 10° NNE
Abrixas rocket 2.9 19:08:20 10° W 19:11:03 33° SSW 19:11:30 31° S
Cosmos 1023 Rocket 4.4 19:06:13 10° SSW 19:11:22 74° ESE 19:16:30 10° NNE
Cosmos 2151 4.4 19:09:20 10° NNE 19:12:32 21° ENE 19:13:16 20° E
Cosmos 2058 3.4 19:09:17 10° N 19:13:12 41° ENE 19:14:34 31° ESE
STARLINK-1202 3.5 19:09:12 10° WNW 19:13:22 89° SSW 19:15:18 31° ESE
NOSS 3-4 (C) 4.5 19:07:18 10° NW 19:14:00 51° WSW 19:20:38 13° SSE
SPOT 1/Viking Rocket 4.1 19:12:00 25° ESE 19:14:34 42° ENE 19:19:28 10° N
RESURS DK-1 3.7 19:12:18 10° NNW 19:15:53 27° NE 19:17:24 22° E
In-Cosmos 22 Rocket 4.4 19:11:15 10° N 19:17:03 61° ENE 19:20:35 24° SSE
Cosmos 1300 2.6 19:17:23 20° S 19:19:55 68° E 19:23:44 10° NNE
Cosmos 1076 Rocket 3.7 19:16:31 10° N 19:20:43 51° ENE 19:22:14 34° SE
FALCON 9 DEB 4.0 19:17:38 10° SW 19:20:16 32° S 19:20:16 32° S
MOS 1 Rocket 3.6 19:16:02 10° NNE 19:21:26 89° ESE 19:26:54 10° SSW
SL-4 R/B 1.4 19:18:09 10° WSW 19:21:33 74° SSE 19:22:39 40° E
STARLINK-1246 3.5 19:19:11 10° WNW 19:23:20 83° SSW 19:24:53 38° ESE
CZ-2C R/B 4.3 19:19:07 10° N 19:23:47 61° WNW 19:28:21 10° SSW
STARLINK-1203 3.6 19:19:48 10° WNW 19:24:02 79° SSW 19:25:34 38° ESE
Cosmos 1340 Rocket 3.3 19:20:39 10° SSW 19:24:39 61° WNW 19:28:40 10° N
STARLINK-1201 3.5 19:21:47 10° WNW 19:24:56 46° SSW 19:25:27 42° S
H-2A R/B 4.2 19:22:52 10° SW 19:26:57 23° W 19:30:59 10° NW
STARLINK-1224 3.5 19:24:09 10° WNW 19:28:19 79° SSW 19:29:39 41° ESE
Cosmos 1763 Rocket 3.8 19:23:18 10° NNW 19:28:24 52° ENE 19:30:28 33° ESE
STARLINK-1225 3.5 19:29:09 10° WNW 19:33:18 76° SSW 19:34:27 46° SE
SAR-Lupe-2 3.4 19:32:16 10° NNE 19:35:52 72° ESE 19:36:47 46° S
MetOp-B 4.1 19:33:00 24° SSE 19:36:21 85° WSW 19:41:45 10° NNW
Cosmos 540 Rocket 4.4 19:33:08 10° NNW 19:37:54 35° NE 19:39:30 29° E
STARLINK-1230 3.6 19:34:08 10° WNW 19:38:17 73° SSW 19:39:14 50° SE
Cosmos 1174 4.0 19:34:37 10° NW 19:38:37 85° NE 19:40:09 42° SE
COSMOS 2406 4.1 19:39:01 29° E 19:39:01 29° E 19:43:31 10° NE
USA 234 3.5 19:33:52 10° ENE 19:40:05 44° SE 19:46:15 10° SSW
Meteor 2-10 Rocket 4.3 19:42:14 31° E 19:42:34 32° E 19:47:18 10° NNE
STARLINK-1243 3.6 19:39:06 10° WNW 19:43:14 69° SSW 19:44:00 54° SE
Cosmos-2242 4.1 19:44:32 28° ENE 19:44:32 28° ENE 19:47:40 10° NNE
Iridium 4 Rocket 2.8 19:39:45 10° N 19:44:00 70° E 19:44:57 50° SSE
ATLAS 2AS CENTAUR R/B 4.2 19:39:15 10° NW 19:45:44 32° WSW 19:51:22 12° S
STARLINK-1236 3.6 19:44:05 10° WNW 19:48:12 66° SSW 19:48:47 57° SSE
USA 32 4.3 19:44:20 10° N 19:49:28 51° ENE 19:50:43 42° ESE
STPSAT 2 (USA 217) 4.5 19:48:49 37° S 19:50:26 65° ESE 19:54:55 10° NNE
CZ-4C R/B 3.4 19:45:55 10° NW 19:52:25 49° NNE 19:56:49 25° E
Cosmos 1140 Rocket 4.1 19:48:37 10° SW 19:53:43 57° WNW 19:58:50 10° NNE
Cosmos 2369 4.1 19:50:56 10° NNW 19:56:27 49° NE 19:58:09 37° E
STARLINK-1269 3.7 19:54:02 10° WNW 19:58:08 59° SSW 19:58:20 58° SSW
Spot 2 Rocket 3.8 19:56:54 30° S 19:59:23 63° WSW 20:04:29 10° NNW
Meteor 2-1 Rocket 4.2 19:56:24 30° S 19:59:24 72° E 20:05:20 10° NNE
CZ-2C R/B 3.4 19:54:41 10° N 19:59:41 51° WNW 20:04:42 10° SW
Cosmos 1850 Rocket 4.0 19:59:22 49° SE 20:00:05 53° ESE 20:05:08 10° NNE
Landsat 7 3.8 19:58:57 43° S 20:00:31 79° WSW 20:05:19 10° NNW
COSMOS 2455 3.9 19:56:25 10° NW 20:01:55 37° WSW 20:05:11 21° SSW
Cosmos 1697 Rocket 3.0 19:56:53 10° NNW 20:02:29 54° NE 20:04:03 42° ESE
Cosmos 1408 2.9 19:59:05 10° N 20:02:18 56° NE 20:02:18 56° NE
STARLINK-1200 3.8 19:59:01 10° WNW 20:03:05 56° SSW 20:03:07 56° SSW
ASTEX 1 4.4 20:05:06 31° ENE 20:05:15 31° ENE 20:09:35 10° NNE
Cosmos 841 Rocket 3.7 20:00:28 10° NNW 20:05:43 60° ENE 20:06:47 49° ESE
CARTOSAT-1 3.4 20:06:16 67° ESE 20:06:39 73° ENE 20:10:58 10° N
IGS 5A 3.6 20:06:53 53° SSW 20:07:39 66° WSW 20:11:48 10° NNW
STARLINK-1192 3.9 20:04:01 10° WNW 20:07:54 52° SW 20:07:54 52° SW
Cosmos 2218 Rocket 4.3 20:02:30 10° NNW 20:08:38 64° W 20:12:17 25° SSW
Cosmos 1356 Rocket 3.9 20:10:36 49° ENE 20:10:36 49° ENE 20:14:07 10° NNE
Resurs 01 Rocket 3.6 20:08:29 12° SW 20:11:39 24° W 20:15:18 10° NW
Okean 3 Rocket 3.5 20:08:10 10° N 20:12:35 66° ENE 20:12:40 66° E
STARLINK-1244 4.1 20:09:00 10° WNW 20:12:41 48° SW 20:12:41 48° SW
ERBS 3.5 20:09:58 10° WNW 20:12:22 37° W 20:12:22 37° W
Mayak 0.9 20:10:02 10° NE 20:11:12 15° NE 20:11:12 15° NE
Cosmos 468 Rocket 4.3 20:11:33 10° NNW 20:16:39 59° WSW 20:18:01 44° SSW
BREEZE-M DEB (TANK) 4.1 20:14:27 10° W 20:15:10 16° W 20:15:10 16° W
ATLAS CENTAUR R/B 1.8 20:13:09 10° NW 20:16:45 46° NNE 20:16:45 46° NNE
Cosmos 1766 Rocket 3.6 20:13:25 10° N 20:17:48 63° ENE 20:17:48 63° ENE
STARLINK-1138 4.3 20:13:59 10° WNW 20:17:28 44° SW 20:17:28 44° SW
SL-16 R/B 4.0 20:15:36 10° NNW 20:19:57 22° NE 20:22:22 17° ENE
Cosmos 1570 Rocket 3.9 20:15:34 10° NNW 20:20:59 90° NW 20:21:55 62° SSE
STARLINK-1143 4.5 20:18:58 10° WNW 20:22:14 40° WSW 20:22:14 40° WSW
Meteor 2-3 Rocket 4.0 20:22:28 10° N 20:28:06 52° ENE 20:28:43 50° E
ERS-1 Rocket 3.1 20:27:20 53° SSW 20:28:20 67° WSW 20:33:22 10° NNW
Cosmos 2322 Rocket 4.0 20:24:08 10° NNW 20:28:24 21° NE 20:30:46 17° ENE
Cosmos 1455 3.0 20:30:11 47° NNE 20:30:11 47° NNE 20:33:01 10° N
Cosmos 1656 3.8 20:24:08 10° NW 20:29:47 66° WSW 20:30:57 53° SSW
Cosmos 1812 Rocket 4.5 20:29:45 30° SW 20:31:23 45° WNW 20:35:34 10° N
Cosmos 1980 Rocket 2.5 20:26:12 10° NNW 20:31:42 51° NE 20:32:34 47° E
Cosmos 1892 3.9 20:28:06 10° NNW 20:31:43 36° W 20:32:00 36° WSW
SPOT 5 2.7 20:34:14 67° WSW 20:34:15 67° WSW 20:38:36 10° NNW
Cosmos 1825 3.0 20:38:08 10° NNW 20:41:04 49° NW 20:41:04 49° NW
Cosmos 2344 4.3 20:33:32 10° NW 20:42:32 72° NE 20:48:33 34° ESE
Terra 1.7 20:42:27 78° WSW 20:42:33 78° WSW 20:47:20 10° NNW
ATLAS 5 CENTAUR R/B 3.1 20:41:42 10° W 20:45:49 37° NNW 20:50:31 10° NE
Cosmos 2151 3.7 20:46:03 10° NNW 20:49:51 47° W 20:49:51 47° W
Nadezhda 3 Rocket 3.9 20:50:21 59° S 20:51:41 89° E 20:58:01 10° N
Cosmos 2360 4.0 20:46:44 10° NNW 20:52:29 86° ENE 20:52:50 79° SE
RESURS DK-1 3.4 20:50:07 10° NW 20:53:17 40° W 20:53:17 40° W
Cosmos 1535 Rocket 4.3 20:48:47 10° N 20:54:58 76° E 20:55:37 69° SE
Cosmos 1741 Rocket 4.4 20:54:59 39° SW 20:56:48 62° WNW 21:02:07 10° NNE
Cosmos 2278 3.5 20:53:04 10° NNW 20:58:47 89° ENE 20:58:59 84° SE
Cosmos 1408 Rocket 4.0 20:54:41 10° NNW 20:58:24 60° NNW 20:58:24 60° NNW
Cosmos 1743 Rocket 4.4 20:55:49 10° N 20:59:12 44° NNE 20:59:12 44° NNE
Thor Agena Rocket 4.3 20:55:28 10° NNE 20:59:03 39° ENE 20:59:03 39° ENE
Cosmos 2208 Rocket 4.4 20:55:37 10° NNW 21:00:40 53° WSW 21:00:47 53° WSW
SL-4 R/B 4.3 20:57:40 10° W 20:58:16 14° W 20:58:16 14° W
Cosmos 2082 Rocket 3.1 21:04:00 35° ENE 21:04:00 35° ENE 21:07:36 10° NE
Cosmos 1833 Rocket 2.7 21:13:43 71° NE 21:13:43 71° NE 21:18:48 10° NNE
Spot 4 4.4 21:20:22 55° NNE 21:20:22 55° NNE 21:24:17 10° N
BREEZE M DEB (TANK) 4.1 21:14:34 10° WSW 21:19:36 79° SSE 21:39:23 10° E
Cosmos 540 Rocket 4.3 21:14:44 10° NW 21:19:20 42° W 21:19:20 42° W
Cosmos 2221 4.0 21:21:51 31° NNE 21:21:51 31° NNE 21:24:17 10° NNE
Meteor 1-27 4.3 21:21:10 69° ENE 21:21:10 69° ENE 21:26:32 10° NNE
Cosmos-2242 4.4 21:21:21 33° WNW 21:21:22 33° WNW 21:25:22 10° N
COSMOS 2406 3.6 21:21:00 42° WSW 21:22:39 59° NW 21:28:20 10° NNE
USA 234 3.2 21:16:53 10° ENE 21:23:28 81° NNW 21:30:00 10° WSW
Cosmos 1934 Rocket 4.0 21:17:54 10° NNW 21:24:09 70° W 21:24:38 67° SW
Meteor 2-10 Rocket 4.5 21:23:20 38° WSW 21:24:28 43° WNW 21:29:41 10° N
Cosmos 1605 Rocket 3.9 21:32:25 10° NNW 21:38:35 81° W 21:38:36 81° W
CZ-4C R/B 2.9 21:34:24 10° NW 21:41:26 67° SW 21:42:00 65° SSW
ASTEX 1 4.4 21:44:36 40° WNW 21:44:36 40° WNW 21:48:50 10° NNW
Cosmos 1697 Rocket 3.9 21:41:16 10° NW 21:45:47 31° W 21:45:47 31° W
Mayak 0.4 21:45:06 10° N 21:47:47 33° NNW 21:47:47 33° NNW
ALOS 2 4.0 21:55:17 37° N 21:55:17 37° N 21:58:02 10° N
Cosmos 1339 Rocket 4.5 21:53:44 81° W 21:53:47 81° W 22:00:15 10° N
ATLAS CENTAUR R/B 4.1 21:52:30 10° WNW 21:52:56 12° WNW 21:52:56 12° WNW
Cosmos 968 Rocket 4.4 22:06:28 43° NE 22:06:28 43° NE 22:10:00 10° NNE
SL-16 R/B 2.5 21:59:17 10° NNW 22:04:14 65° N 22:04:14 65° N
Cosmos 2360 Rocket 3.0 22:03:06 10° NNW 22:08:29 43° NE 22:08:30 43° NE
Cosmos 2322 Rocket 2.5 22:07:44 10° NNW 22:12:34 63° N 22:12:34 63° N
Cosmos 1980 Rocket 3.5 22:10:32 10° NW 22:14:19 30° W 22:14:19 30° W
Terra 4.4 22:21:20 12° W 22:21:20 12° W 22:22:44 10° WNW
Cosmos 2333 Rocket 3.8 22:18:37 10° NNW 22:23:29 28° NE 22:25:05 25° ENE
ATLAS 5 CENTAUR R/B 4.3 22:28:07 10° NW 22:31:50 21° N 22:35:57 10° NE
Cosmos 2061 Rocket 4.1 22:26:09 10° N 22:32:00 72° NE 22:32:00 72° NE
Cosmos 1607 4.0 22:38:22 72° NNW 22:38:22 72° NNW 22:44:17 10° NE
Cosmos 2082 Rocket 3.2 22:45:47 38° WNW 22:46:25 39° NW 22:51:44 10° NNE
SL-16 R/B 4.1 22:46:28 21° E 22:48:51 27° NE 22:53:57 10° N
Cosmos 1459 Rocket 4.3 22:43:57 10° NNW 22:49:42 61° WNW 22:49:42 61° WNW
Cosmos 2233 Rocket 4.2 22:53:24 10° N 22:59:27 63° ENE 22:59:27 63° ENE
USA 234 3.8 22:59:51 10° ENE 23:06:12 55° N 23:12:32 10° W
Cosmos 2219 Rocket 3.0 23:01:34 10° NNW 23:06:58 44° NE 23:07:20 44° ENE
Cosmos 1725 Rocket 4.1 23:00:48 10° NNW 23:06:34 73° NW 23:06:34 73° NW
Cosmos 2016 Rocket 4.2 23:01:06 10° NNW 23:06:48 64° WNW 23:06:48 64° WNW
Cosmos 1802 Rocket 4.4 23:02:39 10° NNW 23:07:59 53° WNW 23:07:59 53° WNW
Helios 1B rocket 4.4 23:10:23 10° NNE 23:12:21 28° NNE 23:12:21 28° NNE
Cosmos 2123 Rocket 4.0 23:19:41 76° NNW 23:19:41 76° NNW 23:25:26 10° N
Cosmos 1680 Rocket 4.2 23:16:04 10° NNW 23:20:30 52° NNE 23:20:30 52° NNE
Cosmos 2322 4.0 23:20:47 10° NNW 23:25:36 63° NNW 23:25:36 63° NNW
COSMOS 2428 3.1 23:22:21 10° NNW 23:28:00 57° NE 23:28:04 57° ENE
SJ 16-02 3.4 23:37:59 22° ENE 23:37:59 22° ENE 23:40:08 10° NE
Resurs 1-4 Rocket 3.6 23:33:37 10° NE 23:37:53 27° E 23:37:53 27° E
Cosmos 2228 Rocket 4.2 23:50:00 43° N 23:50:00 43° N 23:53:06 10° N
SL-16 R/B 4.2 23:44:21 10° NW 23:46:05 16° WNW 23:46:05 16° WNW
SL-16 R/B 4.5 23:46:00 10° NNW 23:50:21 22° NE 23:54:41 10° E
Cosmos 2360 Rocket 3.5 23:47:15 10° NW 23:50:15 28° WNW 23:50:15 28° WNW
